Weather History for Valparaiso, FL

Change the Weather History Date:

Friday, February 8, 2013

  Actual Average Record
Temperature  
Mean Temperature 58 °F -  
Max Temperature 66 °F 60 °F 59 °F (2014)
Min Temperature 49 °F 33 °F 44 °F (2014)
Degree Days  
Heating Degree Days 8    
Growing Degree Days 8 (Base 50)    
Moisture  
Dew Point 53 °F    
Average Humidity 90    
Maximum Humidity 100    
Minimum Humidity 74    
Precipitation  
Precipitation 0.00 in - - ()
Sea Level Pressure  
Sea Level Pressure 30.02 in    
Wind  
Wind Speed 4 mph (NW)    
Max Wind Speed 10 mph    
Max Gust Speed -    
Visibility 6 miles    
Events Fog , Rain    
Averages and records for this station are not official NWS values.
T = Trace of Precipitation, MM = Missing Value Source: NWS Daily Summary

Daily Weather History Graph

Daily Weather History Graph

Search for Another Location

Airport:

Trip Planner

Search our weather history database for the weather conditions in past years. The results will help you decide how hot, cold, wet, or windy it might be!

Date:

Astronomy

Feb. 08, 2013 Rise Set
Actual Time 6:32 AM CST 5:28 PM CST
Civil Twilight 6:07 AM CST 5:53 PM CST
Nautical Twilight 5:38 AM CST 6:22 PM CST
Astronomical Twilight 5:10 AM CST 6:50 PM CST
Moon 4:57 AM CST (2/8) 4:03 PM CST (2/8)
Length of Visible Light 11h 46m
Length of Day
10h 56m
Waning Crescent, 3% of the Moon is Illuminated
Feb 8
Waning Crescent
Feb 10
New
Feb 17
First Quarter
Feb 25
Full
Mar 4
Last Quarter

Hourly Weather History & Observations

Time (CST) Temp. Dew Point Humidity Pressure Visibility Wind Dir Wind Speed Gust Speed Precip Events Conditions
12:55 AM 54.7 °F 53.6 °F 96% 29.97 in 10.0 mi NW 2.3 mph - N/A Fog Patches of Fog
1:25 AM 53.6 °F 53.6 °F 100% 29.95 in 10.0 mi NW 2.3 mph - N/A Fog Patches of Fog
1:51 AM 53.2 °F 52.2 °F 96% 29.97 in 1.0 mi North 3.5 mph - N/A   Mostly Cloudy
2:20 AM 51.8 °F 51.8 °F 100% 29.94 in 0.5 mi North 3.5 mph - N/A Fog Fog
2:42 AM 51.8 °F 50.0 °F 94% 29.95 in 1.0 mi North 3.5 mph - N/A   Mostly Cloudy
2:55 AM 52.0 °F 51.3 °F 97% 29.97 in 1.5 mi North 3.5 mph - N/A   Scattered Clouds
3:19 AM 51.8 °F 50.0 °F 94% 29.95 in 0.5 mi NW 2.3 mph - N/A Fog Fog
3:29 AM 51.8 °F 50.0 °F 94% 29.96 in 2.5 mi NW 2.3 mph - N/A   Clear
3:30 AM 51.8 °F 50.0 °F 94% 29.96 in 2.0 mi NW 2.3 mph - N/A   Clear
3:31 AM 51.8 °F 50.0 °F 94% 29.96 in 1.5 mi NW 2.3 mph - N/A   Clear
3:42 AM 51.8 °F 50.0 °F 94% 29.96 in 0.5 mi NNW 2.3 mph - N/A Fog Fog
3:56 AM 51.1 °F 50.4 °F 97% 29.99 in 0.5 mi NW 2.3 mph - N/A Fog Fog
4:22 AM 50.0 °F 50.0 °F 100% 29.97 in 2.0 mi NNW 3.5 mph - N/A   Mostly Cloudy
4:32 AM 50.0 °F 50.0 °F 100% 29.97 in 7.0 mi NW 2.3 mph - N/A Fog Patches of Fog
4:44 AM 50.0 °F 50.0 °F 100% 29.97 in 0.5 mi NW 2.3 mph - N/A Fog Fog
4:55 AM 50.0 °F 49.3 °F 97% 29.99 in 0.5 mi NW 3.5 mph - N/A Fog Fog
5:19 AM 50.0 °F 48.2 °F 94% 29.98 in 0.8 mi NW 2.3 mph - N/A   Scattered Clouds
5:36 AM 50.0 °F 48.2 °F 94% 29.99 in 0.8 mi NW 2.3 mph - N/A   Mist
5:56 AM 50.0 °F 49.1 °F 97% 30.01 in 1.0 mi WNW 3.5 mph - N/A   Mist
6:56 AM 49.3 °F 48.6 °F 97% 30.04 in 0.5 mi NNW 2.3 mph - N/A Fog Fog
7:25 AM 51.8 °F 51.8 °F 100% 30.03 in 0.8 mi North 3.5 mph - N/A   Mostly Cloudy
7:34 AM 53.6 °F 51.8 °F 94% 30.03 in 2.0 mi ESE 1.2 mph - N/A   Mostly Cloudy
7:55 AM 54.7 °F 54.1 °F 98% 30.06 in 2.0 mi North 2.3 mph - N/A   Scattered Clouds
8:18 AM 57.2 °F 55.4 °F 94% 30.04 in 5.0 mi Calm Calm - N/A   Scattered Clouds
8:55 AM 60.6 °F 56.8 °F 87% 30.06 in 10.0 mi Calm Calm - N/A   Partly Cloudy
9:55 AM 63.9 °F 56.5 °F 77% 30.07 in 8.0 mi Calm Calm - N/A   Scattered Clouds
10:55 AM 64.9 °F 56.3 °F 74% 30.07 in 10.0 mi South 6.9 mph - N/A   Scattered Clouds
11:19 AM 64.4 °F 57.2 °F 77% 30.05 in 10.0 mi South 9.2 mph - N/A   Mostly Cloudy
11:55 AM 64.8 °F 56.7 °F 75% 30.05 in 10.0 mi South 10.4 mph - N/A   Mostly Cloudy
12:55 PM 64.4 °F 57.4 °F 78% 30.04 in 10.0 mi SSW 10.4 mph - N/A   Mostly Cloudy
1:55 PM 66.7 °F 58.1 °F 74% 30.04 in 10.0 mi SSW 8.1 mph - N/A   Mostly Cloudy
2:55 PM 65.5 °F 58.6 °F 79% 30.04 in 10.0 mi SW 8.1 mph - N/A   Overcast
3:31 PM 64.4 °F 59.0 °F 83% 30.03 in 10.0 mi Variable 3.5 mph - N/A Rain Light Rain Showers
3:40 PM 64.4 °F 59.0 °F 83% 30.04 in 10.0 mi SW 8.1 mph - N/A   Mostly Cloudy
3:55 PM 65.3 °F 58.6 °F 79% 30.04 in 10.0 mi WSW 5.8 mph - 0.00 in   Mostly Cloudy
4:55 PM 65.7 °F 59.7 °F 81% 30.06 in 10.0 mi Variable 2.3 mph - N/A   Partly Cloudy
5:55 PM 62.8 °F 59.0 °F 87% 30.07 in 10.0 mi West 2.3 mph - N/A   Partly Cloudy
6:55 PM 61.2 °F 58.5 °F 91% 30.10 in 10.0 mi North 8.1 mph - N/A   Scattered Clouds
7:55 PM 60.3 °F 53.6 °F 79% 30.12 in 10.0 mi North 8.1 mph - N/A   Clear
8:55 PM 59.2 °F 53.8 °F 82% 30.14 in 10.0 mi North 9.2 mph - N/A   Clear
9:55 PM 57.6 °F 53.8 °F 87% 30.14 in 10.0 mi North 8.1 mph - N/A   Clear
11:55 PM 54.7 °F 50.5 °F 86% 30.15 in 10.0 mi NNE 4.6 mph - N/A   Scattered Clouds